Data supplied by UK-AIR on 31/3/2012
All Data GMT hour ending 
Status: R =Ratified P=Provisional,P*=As supplied
,,Grangemouth Moray,,,,,,,,,,,,,,,,,,,,,,,
Date,time,"Nitric oxide",status,unit,"Nitrogen dioxide",status,unit,"Nitrogen oxides as nitrogen dioxide",status,unit
 
01-01-2011,01:00,0,R,ugm-3,4,R,ugm-3,4,R,ugm-3
01-01-2011,02:00,0,R,ugm-3,8,R,ugm-3,8,R,ugm-3
01-01-2011,03:00,0,R,ugm-3,6,R,ugm-3,6,R,ugm-3
01-01-2011,04:00,1,R,ugm-3,8,R,ugm-3,10,R,ugm-3
01-01-2011,05:00,1,R,ugm-3,11,R,ugm-3,13,R,ugm-3
01-01-2011,06:00,3,R,ugm-3,19,R,ugm-3,23,R,ugm-3
01-01-2011,07:00,8,R,ugm-3,25,R,ugm-3,36,R,ugm-3
01-01-2011,08:00,3,R,ugm-3,23,R,ugm-3,27,R,ugm-3
01-01-2011,09:00,1,R,ugm-3,13,R,ugm-3,15,R,ugm-3
01-01-2011,10:00,1,R,ugm-3,4,R,ugm-3,6,R,ugm-3
01-01-2011,11:00,1,R,ugm-3,10,R,ugm-3,11,R,ugm-3
01-01-2011,12:00,1,R,ugm-3,6,R,ugm-3,8,R,ugm-3
01-01-2011,13:00,1,R,ugm-3,2,R,ugm-3,4,R,ugm-3
01-01-2011,14:00,1,R,ugm-3,8,R,ugm-3,10,R,ugm-3
01-01-2011,15:00,1,R,ugm-3,11,R,ugm-3,13,R,ugm-3
01-01-2011,16:00,1,R,ugm-3,21,R,ugm-3,23,R,ugm-3
01-01-2011,17:00,3,R,ugm-3,19,R,ugm-3,23,R,ugm-3
01-01-2011,18:00,4,R,ugm-3,38,R,ugm-3,44,R,ugm-3
01-01-2011,19:00,3,R,ugm-3,38,R,ugm-3,42,R,ugm-3
01-01-2011,20:00,1,R,ugm-3,23,R,ugm-3,25,R,ugm-3
01-01-2011,21:00,1,R,ugm-3,21,R,ugm-3,23,R,ugm-3
01-01-2011,22:00,1,R,ugm-3,15,R,ugm-3,17,R,ugm-3
01-01-2011,23:00,1,R,ugm-3,21,R,ugm-3,23,R,ugm-3
01-01-2011,24:00,3,R,ugm-3,21,R,ugm-3,25,R,ugm-3
02-01-2011,01:00,1,R,ugm-3,17,R,ugm-3,19,R,ugm-3
02-01-2011,02:00,1,R,ugm-3,13,R,ugm-3,15,R,ugm-3
02-01-2011,03:00,1,R,ugm-3,13,R,ugm-3,15,R,ugm-3
02-01-2011,04:00,1,R,ugm-3,8,R,ugm-3,10,R,ugm-3
02-01-2011,05:00,1,R,ugm-3,10,R,ugm-3,11,R,ugm-3
02-01-2011,06:00,1,R,ugm-3,10,R,ugm-3,11,R,ugm-3
02-01-2011,07:00,1,R,ugm-3,19,R,ugm-3,21,R,ugm-3
02-01-2011,08:00,3,R,ugm-3,21,R,ugm-3,25,R,ugm-3
02-01-2011,09:00,1,R,ugm-3,23,R,ugm-3,25,R,ugm-3
02-01-2011,10:00,3,R,ugm-3,23,R,ugm-3,27,R,ugm-3
02-01-2011,11:00,8,R,ugm-3,44,R,ugm-3,55,R,ugm-3
02-01-2011,12:00,5,R,ugm-3,38,R,ugm-3,46,R,ugm-3
02-01-2011,13:00,4,R,ugm-3,36,R,ugm-3,42,R,ugm-3
02-01-2011,14:00,9,R,ugm-3,50,R,ugm-3,63,R,ugm-3
02-01-2011,15:00,5,R,ugm-3,48,R,ugm-3,55,R,ugm-3
02-01-2011,16:00,9,R,ugm-3,53,R,ugm-3,67,R,ugm-3
02-01-2011,17:00,11,R,ugm-3,59,R,ugm-3,76,R,ugm-3
02-01-2011,18:00,16,R,ugm-3,67,R,ugm-3,92,R,ugm-3
02-01-2011,19:00,4,R,ugm-3,55,R,ugm-3,61,R,ugm-3
02-01-2011,20:00,3,R,ugm-3,40,R,ugm-3,44,R,ugm-3
02-01-2011,21:00,4,R,ugm-3,52,R,ugm-3,57,R,ugm-3
02-01-2011,22:00,3,R,ugm-3,50,R,ugm-3,53,R,ugm-3
02-01-2011,23:00,1,R,ugm-3,36,R,ugm-3,38,R,ugm-3
02-01-2011,24:00,3,R,ugm-3,38,R,ugm-3,42,R,ugm-3
03-01-2011,01:00,3,R,ugm-3,40,R,ugm-3,44,R,ugm-3
03-01-2011,02:00,1,R,ugm-3,40,R,ugm-3,42,R,ugm-3
03-01-2011,03:00,1,R,ugm-3,38,R,ugm-3,40,R,ugm-3
03-01-2011,04:00,3,R,ugm-3,31,R,ugm-3,34,R,ugm-3
03-01-2011,05:00,3,R,ugm-3,31,R,ugm-3,34,R,ugm-3
03-01-2011,06:00,1,R,ugm-3,15,R,ugm-3,17,R,ugm-3
03-01-2011,07:00,4,R,ugm-3,32,R,ugm-3,38,R,ugm-3
03-01-2011,08:00,4,R,ugm-3,38,R,ugm-3,44,R,ugm-3
03-01-2011,09:00,1,R,ugm-3,17,R,ugm-3,19,R,ugm-3
03-01-2011,10:00,1,R,ugm-3,11,R,ugm-3,13,R,ugm-3
03-01-2011,11:00,1,R,ugm-3,13,R,ugm-3,15,R,ugm-3
03-01-2011,12:00,1,R,ugm-3,10,R,ugm-3,11,R,ugm-3
03-01-2011,13:00,1,R,ugm-3,10,R,ugm-3,11,R,ugm-3
03-01-2011,14:00,1,R,ugm-3,10,R,ugm-3,11,R,ugm-3
03-01-2011,15:00,1,R,ugm-3,6,R,ugm-3,8,R,ugm-3
03-01-2011,16:00,1,R,ugm-3,6,R,ugm-3,8,R,ugm-3
03-01-2011,17:00,0,R,ugm-3,8,R,ugm-3,8,R,ugm-3
03-01-2011,18:00,1,R,ugm-3,10,R,ugm-3,11,R,ugm-3
03-01-2011,19:00,1,R,ugm-3,8,R,ugm-3,10,R,ugm-3
03-01-2011,20:00,1,R,ugm-3,6,R,ugm-3,8,R,ugm-3
03-01-2011,21:00,1,R,ugm-3,8,R,ugm-3,10,R,ugm-3
03-01-2011,22:00,0,R,ugm-3,8,R,ugm-3,8,R,ugm-3
03-01-2011,23:00,0,R,ugm-3,8,R,ugm-3,8,R,ugm-3
03-01-2011,24:00,0,R,ugm-3,6,R,ugm-3,6,R,ugm-3
04-01-2011,01:00,0,R,ugm-3,4,R,ugm-3,4,R,ugm-3
04-01-2011,02:00,0,R,ugm-3,4,R,ugm-3,4,R,ugm-3
04-01-2011,03:00,0,R,ugm-3,2,R,ugm-3,2,R,ugm-3
04-01-2011,04:00,0,R,ugm-3,2,R,ugm-3,2,R,ugm-3
04-01-2011,05:00,0,R,ugm-3,2,R,ugm-3,2,R,ugm-3
04-01-2011,06:00,0,R,ugm-3,2,R,ugm-3,2,R,ugm-3
04-01-2011,07:00,0,R,ugm-3,4,R,ugm-3,4,R,ugm-3
04-01-2011,08:00,1,R,ugm-3,4,R,ugm-3,6,R,ugm-3
04-01-2011,09:00,1,R,ugm-3,4,R,ugm-3,6,R,ugm-3
04-01-2011,10:00,1,R,ugm-3,4,R,ugm-3,6,R,ugm-3
04-01-2011,11:00,1,R,ugm-3,2,R,ugm-3,4,R,ugm-3
04-01-2011,12:00,1,R,ugm-3,4,R,ugm-3,6,R,ugm-3
04-01-2011,13:00,1,R,ugm-3,4,R,ugm-3,6,R,ugm-3
04-01-2011,14:00,1,R,ugm-3,4,R,ugm-3,6,R,ugm-3
04-01-2011,15:00,1,R,ugm-3,4,R,ugm-3,6,R,ugm-3
04-01-2011,16:00,1,R,ugm-3,4,R,ugm-3,6,R,ugm-3
04-01-2011,17:00,1,R,ugm-3,8,R,ugm-3,10,R,ugm-3
04-01-2011,18:00,1,R,ugm-3,8,R,ugm-3,10,R,ugm-3
04-01-2011,19:00,1,R,ugm-3,6,R,ugm-3,8,R,ugm-3
04-01-2011,20:00,1,R,ugm-3,4,R,ugm-3,6,R,ugm-3
04-01-2011,21:00,1,R,ugm-3,4,R,ugm-3,6,R,ugm-3
04-01-2011,22:00,1,R,ugm-3,4,R,ugm-3,6,R,ugm-3
04-01-2011,23:00,0,R,ugm-3,4,R,ugm-3,4,R,ugm-3
04-01-2011,24:00,0,R,ugm-3,4,R,ugm-3,4,R,ugm-3
05-01-2011,01:00,0,R,ugm-3,4,R,ugm-3,4,R,ugm-3
05-01-2011,02:00,1,R,ugm-3,11,R,ugm-3,13,R,ugm-3
05-01-2011,03:00,0,R,ugm-3,10,R,ugm-3,10,R,ugm-3
05-01-2011,04:00,0,R,ugm-3,6,R,ugm-3,6,R,ugm-3
05-01-2011,05:00,1,R,ugm-3,10,R,ugm-3,11,R,ugm-3
05-01-2011,06:00,1,R,ugm-3,13,R,ugm-3,15,R,ugm-3
05-01-2011,07:00,5,R,ugm-3,36,R,ugm-3,44,R,ugm-3
05-01-2011,08:00,1,R,ugm-3,19,R,ugm-3,21,R,ugm-3
05-01-2011,09:00,1,R,ugm-3,25,R,ugm-3,27,R,ugm-3
05-01-2011,10:00,3,R,ugm-3,17,R,ugm-3,21,R,ugm-3
05-01-2011,11:00,3,R,ugm-3,17,R,ugm-3,21,R,ugm-3
05-01-2011,12:00,3,R,ugm-3,23,R,ugm-3,27,R,ugm-3
05-01-2011,13:00,4,R,ugm-3,25,R,ugm-3,31,R,ugm-3
05-01-2011,14:00,1,R,ugm-3,13,R,ugm-3,15,R,ugm-3
05-01-2011,15:00,1,R,ugm-3,17,R,ugm-3,19,R,ugm-3
05-01-2011,16:00,3,R,ugm-3,32,R,ugm-3,36,R,ugm-3
05-01-2011,17:00,6,R,ugm-3,53,R,ugm-3,63,R,ugm-3
05-01-2011,18:00,24,R,ugm-3,69,R,ugm-3,105,R,ugm-3
05-01-2011,19:00,9,R,ugm-3,46,R,ugm-3,59,R,ugm-3
05-01-2011,20:00,3,R,ugm-3,32,R,ugm-3,36,R,ugm-3
05-01-2011,21:00,1,R,ugm-3,27,R,ugm-3,29,R,ugm-3
05-01-2011,22:00,1,R,ugm-3,25,R,ugm-3,27,R,ugm-3
05-01-2011,23:00,1,R,ugm-3,15,R,ugm-3,17,R,ugm-3
05-01-2011,24:00,1,R,ugm-3,13,R,ugm-3,15,R,ugm-3
06-01-2011,01:00,1,R,ugm-3,11,R,ugm-3,13,R,ugm-3
06-01-2011,02:00,0,R,ugm-3,11,R,ugm-3,11,R,ugm-3
06-01-2011,03:00,1,R,ugm-3,13,R,ugm-3,15,R,ugm-3
06-01-2011,04:00,1,R,ugm-3,15,R,ugm-3,17,R,ugm-3
06-01-2011,05:00,1,R,ugm-3,21,R,ugm-3,23,R,ugm-3
06-01-2011,06:00,4,R,ugm-3,31,R,ugm-3,36,R,ugm-3
06-01-2011,07:00,21,R,ugm-3,55,R,ugm-3,88,R,ugm-3
06-01-2011,08:00,6,R,ugm-3,50,R,ugm-3,59,R,ugm-3
06-01-2011,09:00,66,R,ugm-3,71,R,ugm-3,172,R,ugm-3
06-01-2011,10:00,48,R,ugm-3,76,R,ugm-3,149,R,ugm-3
06-01-2011,11:00,9,R,ugm-3,46,R,ugm-3,59,R,ugm-3
06-01-2011,12:00,6,R,ugm-3,31,R,ugm-3,40,R,ugm-3
06-01-2011,13:00,5,R,ugm-3,23,R,ugm-3,31,R,ugm-3
06-01-2011,14:00,3,R,ugm-3,15,R,ugm-3,19,R,ugm-3
06-01-2011,15:00,4,R,ugm-3,21,R,ugm-3,27,R,ugm-3
06-01-2011,16:00,3,R,ugm-3,44,R,ugm-3,48,R,ugm-3
06-01-2011,17:00,5,R,ugm-3,61,R,ugm-3,69,R,ugm-3
06-01-2011,18:00,5,R,ugm-3,65,R,ugm-3,73,R,ugm-3
06-01-2011,19:00,6,R,ugm-3,63,R,ugm-3,73,R,ugm-3
06-01-2011,20:00,33,R,ugm-3,80,R,ugm-3,130,R,ugm-3
06-01-2011,21:00,31,R,ugm-3,74,R,ugm-3,122,R,ugm-3
06-01-2011,22:00,3,R,ugm-3,50,R,ugm-3,53,R,ugm-3
06-01-2011,23:00,5,R,ugm-3,61,R,ugm-3,69,R,ugm-3
06-01-2011,24:00,5,R,ugm-3,53,R,ugm-3,61,R,ugm-3
07-01-2011,01:00,1,R,ugm-3,38,R,ugm-3,40,R,ugm-3
07-01-2011,02:00,5,R,ugm-3,50,R,ugm-3,57,R,ugm-3
07-01-2011,03:00,8,R,ugm-3,59,R,ugm-3,71,R,ugm-3
07-01-2011,04:00,11,R,ugm-3,61,R,ugm-3,78,R,ugm-3
07-01-2011,05:00,20,R,ugm-3,57,R,ugm-3,88,R,ugm-3
07-01-2011,06:00,28,R,ugm-3,57,R,ugm-3,99,R,ugm-3
07-01-2011,07:00,59,R,ugm-3,61,R,ugm-3,151,R,ugm-3
07-01-2011,08:00,163,R,ugm-3,80,R,ugm-3,329,R,ugm-3
07-01-2011,09:00,239,R,ugm-3,99,R,ugm-3,464,R,ugm-3
07-01-2011,10:00,338,R,ugm-3,122,R,ugm-3,638,R,ugm-3
07-01-2011,11:00,149,R,ugm-3,86,R,ugm-3,313,R,ugm-3
07-01-2011,12:00,106,R,ugm-3,69,R,ugm-3,231,R,ugm-3
07-01-2011,13:00,93,R,ugm-3,67,R,ugm-3,208,R,ugm-3
07-01-2011,14:00,105,R,ugm-3,74,R,ugm-3,235,R,ugm-3
07-01-2011,15:00,65,R,ugm-3,65,R,ugm-3,164,R,ugm-3
07-01-2011,16:00,80,R,ugm-3,73,R,ugm-3,195,R,ugm-3
07-01-2011,17:00,58,R,ugm-3,67,R,ugm-3,155,R,ugm-3
07-01-2011,18:00,86,R,ugm-3,76,R,ugm-3,208,R,ugm-3
07-01-2011,19:00,90,R,ugm-3,78,R,ugm-3,216,R,ugm-3
07-01-2011,20:00,49,R,ugm-3,73,R,ugm-3,147,R,ugm-3
07-01-2011,21:00,5,R,ugm-3,29,R,ugm-3,36,R,ugm-3
07-01-2011,22:00,3,R,ugm-3,34,R,ugm-3,38,R,ugm-3
07-01-2011,23:00,1,R,ugm-3,36,R,ugm-3,38,R,ugm-3
07-01-2011,24:00,1,R,ugm-3,29,R,ugm-3,31,R,ugm-3
08-01-2011,01:00,1,R,ugm-3,25,R,ugm-3,27,R,ugm-3
08-01-2011,02:00,1,R,ugm-3,25,R,ugm-3,27,R,ugm-3
08-01-2011,03:00,1,R,ugm-3,21,R,ugm-3,23,R,ugm-3
08-01-2011,04:00,1,R,ugm-3,19,R,ugm-3,21,R,ugm-3
08-01-2011,05:00,1,R,ugm-3,15,R,ugm-3,17,R,ugm-3
08-01-2011,06:00,1,R,ugm-3,25,R,ugm-3,27,R,ugm-3
08-01-2011,07:00,5,R,ugm-3,48,R,ugm-3,55,R,ugm-3
08-01-2011,08:00,16,R,ugm-3,57,R,ugm-3,82,R,ugm-3
08-01-2011,09:00,3,R,ugm-3,38,R,ugm-3,42,R,ugm-3
08-01-2011,10:00,5,R,ugm-3,32,R,ugm-3,40,R,ugm-3
08-01-2011,11:00,9,R,ugm-3,31,R,ugm-3,44,R,ugm-3
08-01-2011,12:00,10,R,ugm-3,32,R,ugm-3,48,R,ugm-3
08-01-2011,13:00,8,R,ugm-3,25,R,ugm-3,36,R,ugm-3
08-01-2011,14:00,8,R,ugm-3,29,R,ugm-3,40,R,ugm-3
08-01-2011,15:00,6,R,ugm-3,32,R,ugm-3,42,R,ugm-3
08-01-2011,16:00,9,R,ugm-3,50,R,ugm-3,63,R,ugm-3
08-01-2011,17:00,1,R,ugm-3,34,R,ugm-3,36,R,ugm-3
08-01-2011,18:00,5,R,ugm-3,32,R,ugm-3,40,R,ugm-3
08-01-2011,19:00,10,R,ugm-3,57,R,ugm-3,73,R,ugm-3
08-01-2011,20:00,4,R,ugm-3,36,R,ugm-3,42,R,ugm-3
08-01-2011,21:00,4,R,ugm-3,36,R,ugm-3,42,R,ugm-3
08-01-2011,22:00,1,R,ugm-3,27,R,ugm-3,29,R,ugm-3
08-01-2011,23:00,1,R,ugm-3,8,R,ugm-3,10,R,ugm-3
08-01-2011,24:00,1,R,ugm-3,13,R,ugm-3,15,R,ugm-3
09-01-2011,01:00,1,R,ugm-3,10,R,ugm-3,11,R,ugm-3
09-01-2011,02:00,1,R,ugm-3,6,R,ugm-3,8,R,ugm-3
09-01-2011,03:00,0,R,ugm-3,8,R,ugm-3,8,R,ugm-3
09-01-2011,04:00,1,R,ugm-3,21,R,ugm-3,23,R,ugm-3
09-01-2011,05:00,1,R,ugm-3,21,R,ugm-3,23,R,ugm-3
09-01-2011,06:00,1,R,ugm-3,19,R,ugm-3,21,R,ugm-3
09-01-2011,07:00,0,R,ugm-3,11,R,ugm-3,11,R,ugm-3
09-01-2011,08:00,1,R,ugm-3,11,R,ugm-3,13,R,ugm-3
09-01-2011,09:00,1,R,ugm-3,10,R,ugm-3,11,R,ugm-3
09-01-2011,10:00,1,R,ugm-3,6,R,ugm-3,8,R,ugm-3
09-01-2011,11:00,3,R,ugm-3,11,R,ugm-3,15,R,ugm-3
09-01-2011,12:00,4,R,ugm-3,21,R,ugm-3,27,R,ugm-3
09-01-2011,13:00,5,R,ugm-3,17,R,ugm-3,25,R,ugm-3
09-01-2011,14:00,3,R,ugm-3,11,R,ugm-3,15,R,ugm-3
09-01-2011,15:00,4,R,ugm-3,21,R,ugm-3,27,R,ugm-3
09-01-2011,16:00,3,R,ugm-3,23,R,ugm-3,27,R,ugm-3
09-01-2011,17:00,3,R,ugm-3,44,R,ugm-3,48,R,ugm-3
09-01-2011,18:00,3,R,ugm-3,46,R,ugm-3,50,R,ugm-3
09-01-2011,19:00,3,R,ugm-3,36,R,ugm-3,40,R,ugm-3
09-01-2011,20:00,1,R,ugm-3,15,R,ugm-3,17,R,ugm-3
09-01-2011,21:00,1,R,ugm-3,15,R,ugm-3,17,R,ugm-3
09-01-2011,22:00,1,R,ugm-3,10,R,ugm-3,11,R,ugm-3
09-01-2011,23:00,1,R,ugm-3,8,R,ugm-3,10,R,ugm-3
09-01-2011,24:00,1,R,ugm-3,4,R,ugm-3,6,R,ugm-3
10-01-2011,01:00,0,R,ugm-3,4,R,ugm-3,4,R,ugm-3
10-01-2011,02:00,0,R,ugm-3,4,R,ugm-3,4,R,ugm-3
10-01-2011,03:00,0,R,ugm-3,2,R,ugm-3,2,R,ugm-3
10-01-2011,04:00,0,R,ugm-3,2,R,ugm-3,2,R,ugm-3
10-01-2011,05:00,0,R,ugm-3,2,R,ugm-3,2,R,ugm-3
10-01-2011,06:00,0,R,ugm-3,6,R,ugm-3,6,R,ugm-3
10-01-2011,07:00,1,R,ugm-3,13,R,ugm-3,15,R,ugm-3
10-01-2011,08:00,3,R,ugm-3,21,R,ugm-3,25,R,ugm-3
10-01-2011,09:00,3,R,ugm-3,25,R,ugm-3,29,R,ugm-3
10-01-2011,10:00,3,R,ugm-3,19,R,ugm-3,23,R,ugm-3
10-01-2011,11:00,4,R,ugm-3,19,R,ugm-3,25,R,ugm-3
10-01-2011,12:00,,,,,,,,,
10-01-2011,13:00,,,,,,,,,
10-01-2011,14:00,,,,,,,,,
10-01-2011,15:00,13,R,ugm-3,50,R,ugm-3,69,R,ugm-3
10-01-2011,16:00,16,R,ugm-3,57,R,ugm-3,82,R,ugm-3
10-01-2011,17:00,15,R,ugm-3,50,R,ugm-3,73,R,ugm-3
10-01-2011,18:00,9,R,ugm-3,40,R,ugm-3,53,R,ugm-3
10-01-2011,19:00,11,R,ugm-3,50,R,ugm-3,67,R,ugm-3
10-01-2011,20:00,5,R,ugm-3,34,R,ugm-3,42,R,ugm-3
10-01-2011,21:00,3,R,ugm-3,23,R,ugm-3,27,R,ugm-3
10-01-2011,22:00,4,R,ugm-3,21,R,ugm-3,27,R,ugm-3
10-01-2011,23:00,1,R,ugm-3,21,R,ugm-3,23,R,ugm-3
10-01-2011,24:00,4,R,ugm-3,36,R,ugm-3,42,R,ugm-3
11-01-2011,01:00,4,R,ugm-3,25,R,ugm-3,31,R,ugm-3
11-01-2011,02:00,1,R,ugm-3,8,R,ugm-3,10,R,ugm-3
11-01-2011,03:00,1,R,ugm-3,15,R,ugm-3,17,R,ugm-3
11-01-2011,04:00,0,R,ugm-3,10,R,ugm-3,10,R,ugm-3
11-01-2011,05:00,1,R,ugm-3,10,R,ugm-3,11,R,ugm-3
11-01-2011,06:00,3,R,ugm-3,23,R,ugm-3,27,R,ugm-3
11-01-2011,07:00,4,R,ugm-3,34,R,ugm-3,40,R,ugm-3
11-01-2011,08:00,4,R,ugm-3,46,R,ugm-3,52,R,ugm-3
11-01-2011,09:00,4,R,ugm-3,34,R,ugm-3,40,R,ugm-3
11-01-2011,10:00,4,R,ugm-3,34,R,ugm-3,40,R,ugm-3
11-01-2011,11:00,4,R,ugm-3,27,R,ugm-3,32,R,ugm-3
11-01-2011,12:00,5,R,ugm-3,25,R,ugm-3,32,R,ugm-3
11-01-2011,13:00,5,R,ugm-3,25,R,ugm-3,32,R,ugm-3
11-01-2011,14:00,6,R,ugm-3,27,R,ugm-3,36,R,ugm-3
11-01-2011,15:00,4,R,ugm-3,25,R,ugm-3,31,R,ugm-3
11-01-2011,16:00,8,R,ugm-3,53,R,ugm-3,65,R,ugm-3
11-01-2011,17:00,48,R,ugm-3,82,R,ugm-3,155,R,ugm-3
11-01-2011,18:00,123,R,ugm-3,97,R,ugm-3,285,R,ugm-3
11-01-2011,19:00,134,R,ugm-3,99,R,ugm-3,304,R,ugm-3
11-01-2011,20:00,105,R,ugm-3,84,R,ugm-3,244,R,ugm-3
11-01-2011,21:00,163,R,ugm-3,96,R,ugm-3,344,R,ugm-3
11-01-2011,22:00,109,R,ugm-3,92,R,ugm-3,258,R,ugm-3
11-01-2011,23:00,136,R,ugm-3,94,R,ugm-3,302,R,ugm-3
11-01-2011,24:00,168,R,ugm-3,96,R,ugm-3,351,R,ugm-3
12-01-2011,01:00,131,R,ugm-3,84,R,ugm-3,285,R,ugm-3
12-01-2011,02:00,10,R,ugm-3,59,R,ugm-3,74,R,ugm-3
12-01-2011,03:00,5,R,ugm-3,52,R,ugm-3,59,R,ugm-3
12-01-2011,04:00,4,R,ugm-3,34,R,ugm-3,40,R,ugm-3
12-01-2011,05:00,3,R,ugm-3,19,R,ugm-3,23,R,ugm-3
12-01-2011,06:00,5,R,ugm-3,27,R,ugm-3,34,R,ugm-3
12-01-2011,07:00,4,R,ugm-3,27,R,ugm-3,32,R,ugm-3
12-01-2011,08:00,5,R,ugm-3,38,R,ugm-3,46,R,ugm-3
12-01-2011,09:00,56,R,ugm-3,76,R,ugm-3,162,R,ugm-3
12-01-2011,10:00,68,R,ugm-3,74,R,ugm-3,178,R,ugm-3
12-01-2011,11:00,60,R,ugm-3,71,R,ugm-3,162,R,ugm-3
12-01-2011,12:00,43,R,ugm-3,63,R,ugm-3,128,R,ugm-3
12-01-2011,13:00,,,,,,,,,
12-01-2011,14:00,,,,,,,,,
12-01-2011,15:00,,,,,,,,,
12-01-2011,16:00,,,,,,,,,
12-01-2011,17:00,,,,,,,,,
12-01-2011,18:00,,,,,,,,,
12-01-2011,19:00,,,,,,,,,
12-01-2011,20:00,,,,,,,,,
12-01-2011,21:00,,,,,,,,,
12-01-2011,22:00,,,,,,,,,
12-01-2011,23:00,,,,,,,,,
12-01-2011,24:00,,,,,,,,,
13-01-2011,01:00,,,,,,,,,
13-01-2011,02:00,,,,,,,,,
13-01-2011,03:00,,,,,,,,,
13-01-2011,04:00,,,,,,,,,
13-01-2011,05:00,,,,,,,,,
13-01-2011,06:00,,,,,,,,,
13-01-2011,07:00,,,,,,,,,
13-01-2011,08:00,,,,,,,,,
13-01-2011,09:00,,,,,,,,,
13-01-2011,10:00,,,,,,,,,
13-01-2011,11:00,,,,,,,,,
13-01-2011,12:00,5,R,ugm-3,29,R,ugm-3,36,R,ugm-3
13-01-2011,13:00,1,R,ugm-3,15,R,ugm-3,17,R,ugm-3
13-01-2011,14:00,1,R,ugm-3,19,R,ugm-3,21,R,ugm-3
13-01-2011,15:00,1,R,ugm-3,23,R,ugm-3,25,R,ugm-3
13-01-2011,16:00,1,R,ugm-3,34,R,ugm-3,36,R,ugm-3
13-01-2011,17:00,1,R,ugm-3,32,R,ugm-3,34,R,ugm-3
13-01-2011,18:00,1,R,ugm-3,38,R,ugm-3,40,R,ugm-3
13-01-2011,19:00,1,R,ugm-3,38,R,ugm-3,40,R,ugm-3
13-01-2011,20:00,11,R,ugm-3,50,R,ugm-3,67,R,ugm-3
13-01-2011,21:00,13,R,ugm-3,48,R,ugm-3,67,R,ugm-3
13-01-2011,22:00,20,R,ugm-3,53,R,ugm-3,84,R,ugm-3
13-01-2011,23:00,5,R,ugm-3,31,R,ugm-3,38,R,ugm-3
13-01-2011,24:00,1,R,ugm-3,13,R,ugm-3,15,R,ugm-3
14-01-2011,01:00,0,R,ugm-3,8,R,ugm-3,8,R,ugm-3
14-01-2011,02:00,0,R,ugm-3,4,R,ugm-3,4,R,ugm-3
14-01-2011,03:00,0,R,ugm-3,4,R,ugm-3,4,R,ugm-3
14-01-2011,04:00,0,R,ugm-3,6,R,ugm-3,6,R,ugm-3
14-01-2011,05:00,0,R,ugm-3,2,R,ugm-3,2,R,ugm-3
14-01-2011,06:00,0,R,ugm-3,4,R,ugm-3,4,R,ugm-3
14-01-2011,07:00,0,R,ugm-3,8,R,ugm-3,8,R,ugm-3
14-01-2011,08:00,1,R,ugm-3,19,R,ugm-3,21,R,ugm-3
14-01-2011,09:00,1,R,ugm-3,17,R,ugm-3,19,R,ugm-3
14-01-2011,10:00,1,R,ugm-3,15,R,ugm-3,17,R,ugm-3
14-01-2011,11:00,1,R,ugm-3,10,R,ugm-3,11,R,ugm-3
14-01-2011,12:00,1,R,ugm-3,8,R,ugm-3,10,R,ugm-3
14-01-2011,13:00,1,R,ugm-3,6,R,ugm-3,8,R,ugm-3
14-01-2011,14:00,1,R,ugm-3,6,R,ugm-3,8,R,ugm-3
14-01-2011,15:00,1,R,ugm-3,8,R,ugm-3,10,R,ugm-3
14-01-2011,16:00,1,R,ugm-3,10,R,ugm-3,11,R,ugm-3
14-01-2011,17:00,1,R,ugm-3,13,R,ugm-3,15,R,ugm-3
14-01-2011,18:00,1,R,ugm-3,13,R,ugm-3,15,R,ugm-3
14-01-2011,19:00,1,R,ugm-3,15,R,ugm-3,17,R,ugm-3
14-01-2011,20:00,0,R,ugm-3,11,R,ugm-3,11,R,ugm-3
14-01-2011,21:00,0,R,ugm-3,10,R,ugm-3,10,R,ugm-3
14-01-2011,22:00,0,R,ugm-3,8,R,ugm-3,8,R,ugm-3
14-01-2011,23:00,0,R,ugm-3,6,R,ugm-3,6,R,ugm-3
14-01-2011,24:00,0,R,ugm-3,4,R,ugm-3,4,R,ugm-3
15-01-2011,01:00,0,R,ugm-3,6,R,ugm-3,6,R,ugm-3
15-01-2011,02:00,0,R,ugm-3,4,R,ugm-3,4,R,ugm-3
15-01-2011,03:00,0,R,ugm-3,2,R,ugm-3,2,R,ugm-3
15-01-2011,04:00,0,R,ugm-3,2,R,ugm-3,2,R,ugm-3
15-01-2011,05:00,0,R,ugm-3,2,R,ugm-3,2,R,ugm-3
15-01-2011,06:00,0,R,ugm-3,2,R,ugm-3,2,R,ugm-3
15-01-2011,07:00,0,R,ugm-3,2,R,ugm-3,2,R,ugm-3
15-01-2011,08:00,0,R,ugm-3,2,R,ugm-3,2,R,ugm-3
15-01-2011,09:00,0,R,ugm-3,4,R,ugm-3,4,R,ugm-3
15-01-2011,10:00,0,R,ugm-3,4,R,ugm-3,4,R,ugm-3
15-01-2011,11:00,0,R,ugm-3,4,R,ugm-3,4,R,ugm-3
15-01-2011,12:00,0,R,ugm-3,4,R,ugm-3,4,R,ugm-3
15-01-2011,13:00,0,R,ugm-3,4,R,ugm-3,4,R,ugm-3
15-01-2011,14:00,0,R,ugm-3,4,R,ugm-3,4,R,ugm-3
15-01-2011,15:00,0,R,ugm-3,4,R,ugm-3,4,R,ugm-3
15-01-2011,16:00,0,R,ugm-3,4,R,ugm-3,4,R,ugm-3
15-01-2011,17:00,0,R,ugm-3,4,R,ugm-3,4,R,ugm-3
15-01-2011,18:00,0,R,ugm-3,4,R,ugm-3,4,R,ugm-3
15-01-2011,19:00,0,R,ugm-3,4,R,ugm-3,4,R,ugm-3
15-01-2011,20:00,0,R,ugm-3,4,R,ugm-3,4,R,ugm-3
15-01-2011,21:00,0,R,ugm-3,4,R,ugm-3,4,R,ugm-3
15-01-2011,22:00,0,R,ugm-3,2,R,ugm-3,2,R,ugm-3
15-01-2011,23:00,0,R,ugm-3,2,R,ugm-3,2,R,ugm-3
15-01-2011,24:00,0,R,ugm-3,0,R,ugm-3,0,R,ugm-3
16-01-2011,01:00,0,R,ugm-3,2,R,ugm-3,2,R,ugm-3
16-01-2011,02:00,0,R,ugm-3,0,R,ugm-3,0,R,ugm-3
16-01-2011,03:00,0,R,ugm-3,0,R,ugm-3,0,R,ugm-3
16-01-2011,04:00,0,R,ugm-3,0,R,ugm-3,0,R,ugm-3
16-01-2011,05:00,0,R,ugm-3,0,R,ugm-3,0,R,ugm-3
16-01-2011,06:00,0,R,ugm-3,0,R,ugm-3,0,R,ugm-3
16-01-2011,07:00,0,R,ugm-3,2,R,ugm-3,2,R,ugm-3
16-01-2011,08:00,0,R,ugm-3,2,R,ugm-3,2,R,ugm-3
16-01-2011,09:00,0,R,ugm-3,2,R,ugm-3,2,R,ugm-3
16-01-2011,10:00,0,R,ugm-3,2,R,ugm-3,2,R,ugm-3
16-01-2011,11:00,0,R,ugm-3,2,R,ugm-3,2,R,ugm-3
16-01-2011,12:00,0,R,ugm-3,4,R,ugm-3,4,R,ugm-3
16-01-2011,13:00,0,R,ugm-3,4,R,ugm-3,4,R,ugm-3
16-01-2011,14:00,0,R,ugm-3,4,R,ugm-3,4,R,ugm-3
16-01-2011,15:00,0,R,ugm-3,4,R,ugm-3,4,R,ugm-3
16-01-2011,16:00,0,R,ugm-3,6,R,ugm-3,6,R,ugm-3
16-01-2011,17:00,0,R,ugm-3,8,R,ugm-3,8,R,ugm-3
16-01-2011,18:00,0,R,ugm-3,6,R,ugm-3,6,R,ugm-3
16-01-2011,19:00,0,R,ugm-3,8,R,ugm-3,8,R,ugm-3
16-01-2011,20:00,0,R,ugm-3,6,R,ugm-3,6,R,ugm-3
16-01-2011,21:00,0,R,ugm-3,4,R,ugm-3,4,R,ugm-3
16-01-2011,22:00,0,R,ugm-3,4,R,ugm-3,4,R,ugm-3
16-01-2011,23:00,0,R,ugm-3,4,R,ugm-3,4,R,ugm-3
16-01-2011,24:00,0,R,ugm-3,2,R,ugm-3,2,R,ugm-3
17-01-2011,01:00,0,R,ugm-3,2,R,ugm-3,2,R,ugm-3
17-01-2011,02:00,0,R,ugm-3,2,R,ugm-3,2,R,ugm-3
17-01-2011,03:00,0,R,ugm-3,0,R,ugm-3,0,R,ugm-3
17-01-2011,04:00,0,R,ugm-3,0,R,ugm-3,0,R,ugm-3
17-01-2011,05:00,0,R,ugm-3,2,R,ugm-3,2,R,ugm-3
17-01-2011,06:00,0,R,ugm-3,4,R,ugm-3,4,R,ugm-3
17-01-2011,07:00,0,R,ugm-3,6,R,ugm-3,6,R,ugm-3
17-01-2011,08:00,1,R,ugm-3,17,R,ugm-3,19,R,ugm-3
17-01-2011,09:00,13,R,ugm-3,46,R,ugm-3,65,R,ugm-3
17-01-2011,10:00,3,R,ugm-3,29,R,ugm-3,32,R,ugm-3
17-01-2011,11:00,4,R,ugm-3,29,R,ugm-3,34,R,ugm-3
17-01-2011,12:00,4,R,ugm-3,21,R,ugm-3,27,R,ugm-3
17-01-2011,13:00,3,R,ugm-3,11,R,ugm-3,15,R,ugm-3
17-01-2011,14:00,1,R,ugm-3,13,R,ugm-3,15,R,ugm-3
17-01-2011,15:00,3,R,ugm-3,19,R,ugm-3,23,R,ugm-3
17-01-2011,16:00,1,R,ugm-3,27,R,ugm-3,29,R,ugm-3
17-01-2011,17:00,3,R,ugm-3,38,R,ugm-3,42,R,ugm-3
17-01-2011,18:00,4,R,ugm-3,53,R,ugm-3,59,R,ugm-3
17-01-2011,19:00,1,R,ugm-3,40,R,ugm-3,42,R,ugm-3
17-01-2011,20:00,1,R,ugm-3,50,R,ugm-3,52,R,ugm-3
17-01-2011,21:00,1,R,ugm-3,36,R,ugm-3,38,R,ugm-3
17-01-2011,22:00,1,R,ugm-3,38,R,ugm-3,40,R,ugm-3
17-01-2011,23:00,0,R,ugm-3,31,R,ugm-3,31,R,ugm-3
17-01-2011,24:00,5,R,ugm-3,55,R,ugm-3,63,R,ugm-3
18-01-2011,01:00,1,R,ugm-3,34,R,ugm-3,36,R,ugm-3
18-01-2011,02:00,1,R,ugm-3,36,R,ugm-3,38,R,ugm-3
18-01-2011,03:00,3,R,ugm-3,25,R,ugm-3,29,R,ugm-3
18-01-2011,04:00,1,R,ugm-3,17,R,ugm-3,19,R,ugm-3
18-01-2011,05:00,1,R,ugm-3,21,R,ugm-3,23,R,ugm-3
18-01-2011,06:00,0,R,ugm-3,13,R,ugm-3,13,R,ugm-3
18-01-2011,07:00,0,R,ugm-3,19,R,ugm-3,19,R,ugm-3
18-01-2011,08:00,6,R,ugm-3,53,R,ugm-3,63,R,ugm-3
18-01-2011,09:00,10,R,ugm-3,67,R,ugm-3,82,R,ugm-3
18-01-2011,10:00,4,R,ugm-3,38,R,ugm-3,44,R,ugm-3
18-01-2011,11:00,9,R,ugm-3,46,R,ugm-3,59,R,ugm-3
18-01-2011,12:00,8,R,ugm-3,34,R,ugm-3,46,R,ugm-3
18-01-2011,13:00,4,R,ugm-3,23,R,ugm-3,29,R,ugm-3
18-01-2011,14:00,3,R,ugm-3,19,R,ugm-3,23,R,ugm-3
18-01-2011,15:00,3,R,ugm-3,25,R,ugm-3,29,R,ugm-3
18-01-2011,16:00,3,R,ugm-3,36,R,ugm-3,40,R,ugm-3
18-01-2011,17:00,3,R,ugm-3,52,R,ugm-3,55,R,ugm-3
18-01-2011,18:00,1,R,ugm-3,29,R,ugm-3,31,R,ugm-3
18-01-2011,19:00,0,R,ugm-3,31,R,ugm-3,31,R,ugm-3
18-01-2011,20:00,1,R,ugm-3,40,R,ugm-3,42,R,ugm-3
18-01-2011,21:00,1,R,ugm-3,29,R,ugm-3,31,R,ugm-3
18-01-2011,22:00,0,R,ugm-3,25,R,ugm-3,25,R,ugm-3
18-01-2011,23:00,0,R,ugm-3,19,R,ugm-3,19,R,ugm-3
18-01-2011,24:00,0,R,ugm-3,15,R,ugm-3,15,R,ugm-3
19-01-2011,01:00,0,R,ugm-3,11,R,ugm-3,11,R,ugm-3
19-01-2011,02:00,0,R,ugm-3,10,R,ugm-3,10,R,ugm-3
19-01-2011,03:00,0,R,ugm-3,6,R,ugm-3,6,R,ugm-3
19-01-2011,04:00,0,R,ugm-3,10,R,ugm-3,10,R,ugm-3
19-01-2011,05:00,0,R,ugm-3,11,R,ugm-3,11,R,ugm-3
19-01-2011,06:00,0,R,ugm-3,11,R,ugm-3,11,R,ugm-3
19-01-2011,07:00,0,R,ugm-3,19,R,ugm-3,19,R,ugm-3
19-01-2011,08:00,1,R,ugm-3,29,R,ugm-3,31,R,ugm-3
19-01-2011,09:00,4,R,ugm-3,40,R,ugm-3,46,R,ugm-3
19-01-2011,10:00,50,R,ugm-3,71,R,ugm-3,147,R,ugm-3
19-01-2011,11:00,55,R,ugm-3,63,R,ugm-3,147,R,ugm-3
19-01-2011,12:00,16,R,ugm-3,48,R,ugm-3,73,R,ugm-3
19-01-2011,13:00,14,R,ugm-3,44,R,ugm-3,65,R,ugm-3
19-01-2011,14:00,10,R,ugm-3,44,R,ugm-3,59,R,ugm-3
19-01-2011,15:00,9,R,ugm-3,44,R,ugm-3,57,R,ugm-3
19-01-2011,16:00,9,R,ugm-3,50,R,ugm-3,63,R,ugm-3
19-01-2011,17:00,11,R,ugm-3,63,R,ugm-3,80,R,ugm-3
19-01-2011,18:00,11,R,ugm-3,65,R,ugm-3,82,R,ugm-3
19-01-2011,19:00,64,R,ugm-3,78,R,ugm-3,176,R,ugm-3
19-01-2011,20:00,98,R,ugm-3,78,R,ugm-3,227,R,ugm-3
19-01-2011,21:00,128,R,ugm-3,82,R,ugm-3,277,R,ugm-3
19-01-2011,22:00,139,R,ugm-3,82,R,ugm-3,294,R,ugm-3
19-01-2011,23:00,124,R,ugm-3,73,R,ugm-3,262,R,ugm-3
19-01-2011,24:00,119,R,ugm-3,69,R,ugm-3,250,R,ugm-3
20-01-2011,01:00,96,R,ugm-3,67,R,ugm-3,214,R,ugm-3
20-01-2011,02:00,48,R,ugm-3,59,R,ugm-3,132,R,ugm-3
20-01-2011,03:00,28,R,ugm-3,50,R,ugm-3,92,R,ugm-3
20-01-2011,04:00,31,R,ugm-3,46,R,ugm-3,94,R,ugm-3
20-01-2011,05:00,40,R,ugm-3,46,R,ugm-3,107,R,ugm-3
20-01-2011,06:00,53,R,ugm-3,52,R,ugm-3,132,R,ugm-3
20-01-2011,07:00,74,R,ugm-3,57,R,ugm-3,170,R,ugm-3
20-01-2011,08:00,90,R,ugm-3,61,R,ugm-3,199,R,ugm-3
20-01-2011,09:00,109,R,ugm-3,65,R,ugm-3,231,R,ugm-3
20-01-2011,10:00,130,R,ugm-3,65,R,ugm-3,264,R,ugm-3
20-01-2011,11:00,115,R,ugm-3,63,R,ugm-3,239,R,ugm-3
20-01-2011,12:00,116,R,ugm-3,63,R,ugm-3,241,R,ugm-3
20-01-2011,13:00,116,R,ugm-3,63,R,ugm-3,241,R,ugm-3
20-01-2011,14:00,130,R,ugm-3,71,R,ugm-3,269,R,ugm-3
20-01-2011,15:00,120,R,ugm-3,73,R,ugm-3,256,R,ugm-3
20-01-2011,16:00,56,R,ugm-3,65,R,ugm-3,151,R,ugm-3
20-01-2011,17:00,100,R,ugm-3,73,R,ugm-3,225,R,ugm-3
20-01-2011,18:00,118,R,ugm-3,76,R,ugm-3,256,R,ugm-3
20-01-2011,19:00,105,R,ugm-3,74,R,ugm-3,235,R,ugm-3
20-01-2011,20:00,100,R,ugm-3,74,R,ugm-3,227,R,ugm-3
20-01-2011,21:00,76,R,ugm-3,74,R,ugm-3,191,R,ugm-3
20-01-2011,22:00,50,R,ugm-3,71,R,ugm-3,147,R,ugm-3
20-01-2011,23:00,43,R,ugm-3,67,R,ugm-3,132,R,ugm-3
20-01-2011,24:00,44,R,ugm-3,63,R,ugm-3,130,R,ugm-3
21-01-2011,01:00,44,R,ugm-3,57,R,ugm-3,124,R,ugm-3
21-01-2011,02:00,46,R,ugm-3,59,R,ugm-3,130,R,ugm-3
21-01-2011,03:00,18,R,ugm-3,53,R,ugm-3,80,R,ugm-3
21-01-2011,04:00,24,R,ugm-3,52,R,ugm-3,88,R,ugm-3
21-01-2011,05:00,20,R,ugm-3,50,R,ugm-3,80,R,ugm-3
21-01-2011,06:00,11,R,ugm-3,48,R,ugm-3,65,R,ugm-3
21-01-2011,07:00,16,R,ugm-3,48,R,ugm-3,73,R,ugm-3
21-01-2011,08:00,113,R,ugm-3,61,R,ugm-3,233,R,ugm-3
21-01-2011,09:00,129,R,ugm-3,69,R,ugm-3,265,R,ugm-3
21-01-2011,10:00,114,R,ugm-3,67,R,ugm-3,241,R,ugm-3
21-01-2011,11:00,130,R,ugm-3,71,R,ugm-3,269,R,ugm-3
21-01-2011,12:00,99,R,ugm-3,65,R,ugm-3,216,R,ugm-3
21-01-2011,13:00,74,R,ugm-3,59,R,ugm-3,172,R,ugm-3
21-01-2011,14:00,114,R,ugm-3,69,R,ugm-3,243,R,ugm-3
21-01-2011,15:00,116,R,ugm-3,67,R,ugm-3,244,R,ugm-3
21-01-2011,16:00,81,R,ugm-3,59,R,ugm-3,183,R,ugm-3